When you browse on this site, cookies collect data to enhance your experience and personalize the content and advertising you see.
Visit our Privacy Policy to learn more. By continuing to use the site, you agree to this use of cookies and data.
  • In Hungary
  • List of Countries
  • For 7 days
  • Water Temperature
  • Satellite Maps
  • Weather Map
  • News
  • Weather Widgets
  • user-avatar
    Login

    Hourly Weather Rivne

    Today, 26 April, Friday

    Time Temperature Precipitation Wind Pressure Humidity
    00:00 +12°C° 0 mm 4 mps 747 mmHg 76%
    01:00 +12°C° 0 mm 4 mps 746 mmHg 78%
    02:00 +11°C° 0 mm 4 mps 746 mmHg 80%
    03:00 +11°C° 0 mm 4 mps 746 mmHg 81%
    04:00 +11°C° 0 mm 4 mps 746 mmHg 83%
    05:00 +11°C° 0 mm 4 mps 746 mmHg 84%
    06:00 +12°C° 0.1 mm 4 mps 746 mmHg 80%
    07:00 +13°C° 0.1 mm 4 mps 746 mmHg 77%
    08:00 +14°C° 0.1 mm 4 mps 745 mmHg 73%
    09:00 +17°C° 0 mm 4 mps 745 mmHg 68%
    10:00 +19°C° 0 mm 4 mps 745 mmHg 62%
    11:00 +22°C° 0 mm 4 mps 745 mmHg 57%
    12:00 +23°C° 0 mm 4 mps 745 mmHg 53%
    13:00 +25°C° 0 mm 4 mps 745 mmHg 49%
    14:00 +26°C° 0 mm 5 mps 744 mmHg 46%
    15:00 +25°C° 0 mm 4 mps 744 mmHg 49%
    16:00 +23°C° 0 mm 4 mps 743 mmHg 52%
    17:00 +24°C° 0 mm 3 mps 743 mmHg 55%
    18:00 +21°C° 0.7 mm 4 mps 743 mmHg 61%
    19:00 +20°C° 0.7 mm 4 mps 743 mmHg 67%
    20:00 +19°C° 0.7 mm 5 mps 742 mmHg 73%
    21:00 +17°C° 1.1 mm 5 mps 742 mmHg 76%
    22:00 +17°C° 1.1 mm 5 mps 742 mmHg 80%
    23:00 +16°C° 1.1 mm 5 mps 742 mmHg 83%

    Tomorrow, 27 April, Saturday

    Time Temperature Precipitation Wind Pressure Humidity
    00:00 +15°C° 1.1 mm 5 mps 742 mmHg 85%
    01:00 +15°C° 1.1 mm 4 mps 742 mmHg 86%
    02:00 +15°C° 1.1 mm 4 mps 742 mmHg 88%
    03:00 +14°C° 0.8 mm 3 mps 742 mmHg 89%
    04:00 +14°C° 0.8 mm 3 mps 741 mmHg 89%
    05:00 +14°C° 0.8 mm 3 mps 741 mmHg 90%
    06:00 +15°C° 0 mm 4 mps 741 mmHg 86%
    07:00 +17°C° 0 mm 4 mps 741 mmHg 82%
    08:00 +18°C° 0 mm 4 mps 741 mmHg 78%
    09:00 +19°C° 0 mm 4 mps 741 mmHg 72%
    10:00 +21°C° 0 mm 4 mps 741 mmHg 66%
    11:00 +23°C° 0 mm 4 mps 741 mmHg 60%
    12:00 +25°C° 0 mm 4 mps 741 mmHg 56%
    13:00 +26°C° 0 mm 4 mps 740 mmHg 52%
    14:00 +27°C° 0 mm 4 mps 740 mmHg 48%
    15:00 +27°C° 0 mm 4 mps 740 mmHg 48%
    16:00 +27°C° 0 mm 3 mps 739 mmHg 48%
    17:00 +27°C° 0 mm 3 mps 739 mmHg 48%
    18:00 +25°C° 0.8 mm 2 mps 739 mmHg 56%
    19:00 +23°C° 0.8 mm 2 mps 739 mmHg 64%
    20:00 +21°C° 0.8 mm 1 mps 739 mmHg 73%
    21:00 +19°C° 2.3 mm 2 mps 739 mmHg 78%
    22:00 +18°C° 2.3 mm 2 mps 739 mmHg 82%
    23:00 +17°C° 2.3 mm 2 mps 740 mmHg 87%

    Day after tomorrow, 28 April, Sunday

    Time Temperature Precipitation Wind Pressure Humidity
    00:00 +17°C° 0.5 mm 2 mps 740 mmHg 89%
    01:00 +16°C° 0.5 mm 2 mps 740 mmHg 91%
    02:00 +16°C° 0.5 mm 2 mps 740 mmHg 94%
    03:00 +16°C° 0 mm 2 mps 740 mmHg 95%
    04:00 +15°C° 0 mm 2 mps 739 mmHg 95%
    05:00 +15°C° 0 mm 2 mps 739 mmHg 96%
    06:00 +15°C° 0 mm 2 mps 739 mmHg 93%
    07:00 +14°C° 0 mm 3 mps 740 mmHg 91%
    08:00 +16°C° 0 mm 3 mps 740 mmHg 88%
    09:00 +17°C° 0 mm 3 mps 740 mmHg 83%
    10:00 +18°C° 0 mm 3 mps 740 mmHg 78%
    11:00 +19°C° 0 mm 3 mps 740 mmHg 73%
    12:00 +20°C° 0.1 mm 3 mps 740 mmHg 70%
    13:00 +21°C° 0.1 mm 3 mps 740 mmHg 67%
    14:00 +21°C° 0.1 mm 3 mps 740 mmHg 64%
    15:00 +21°C° 1.3 mm 3 mps 739 mmHg 67%
    16:00 +20°C° 1.3 mm 3 mps 739 mmHg 71%
    17:00 +20°C° 1.3 mm 3 mps 739 mmHg 75%
    18:00 +18°C° 0.8 mm 3 mps 739 mmHg 81%
    19:00 +17°C° 0.8 mm 2 mps 739 mmHg 86%
    20:00 +16°C° 0.8 mm 2 mps 740 mmHg 91%
    21:00 +16°C° 0.5 mm 2 mps 740 mmHg 92%
    22:00 +16°C° 0.5 mm 2 mps 740 mmHg 94%
    23:00 +16°C° 0.5 mm 2 mps 740 mmHg 95%

    29 April, Monday

    Time Temperature Precipitation Wind Pressure Humidity
    00:00 +15°C° 0.2 mm 2 mps 740 mmHg 95%
    01:00 +15°C° 0.2 mm 2 mps 740 mmHg 94%
    02:00 +15°C° 0.2 mm 2 mps 740 mmHg 94%
    03:00 +14°C° 0.1 mm 3 mps 740 mmHg 94%
    04:00 +14°C° 0.1 mm 3 mps 740 mmHg 94%
    05:00 +13°C° 0.1 mm 4 mps 740 mmHg 94%
    06:00 +14°C° 0.5 mm 4 mps 740 mmHg 93%
    07:00 +14°C° 0.5 mm 5 mps 740 mmHg 92%
    08:00 +14°C° 0.5 mm 6 mps 740 mmHg 90%
    09:00 +14°C° 0.3 mm 6 mps 740 mmHg 89%
    10:00 +14°C° 0.3 mm 6 mps 741 mmHg 88%
    11:00 +14°C° 0.3 mm 6 mps 741 mmHg 87%
    12:00 +12°C° 0.1 mm 7 mps 741 mmHg 87%
    13:00 +11°C° 0.1 mm 7 mps 741 mmHg 87%
    14:00 +11°C° 0.1 mm 7 mps 741 mmHg 87%
    15:00 +10°C° 0 mm 7 mps 741 mmHg 86%
    16:00 +10°C° 0 mm 7 mps 741 mmHg 86%
    17:00 +10°C° 0 mm 7 mps 740 mmHg 86%
    18:00 +10°C° 0 mm 6 mps 741 mmHg 86%
    19:00 +9°C° 0 mm 6 mps 741 mmHg 87%
    20:00 +9°C° 0 mm 6 mps 741 mmHg 87%
    21:00 +9°C° 0.2 mm 6 mps 741 mmHg 88%
    22:00 +9°C° 0.2 mm 6 mps 741 mmHg 88%
    23:00 +9°C° 0.2 mm 5 mps 741 mmHg 89%

    30 April, Tuesday

    Time Temperature Precipitation Wind Pressure Humidity
    00:00 +8°C° 0.7 mm 5 mps 740 mmHg 90%
    01:00 +8°C° 0.7 mm 5 mps 740 mmHg 90%
    02:00 +8°C° 0.7 mm 5 mps 740 mmHg 91%
    03:00 +7°C° 0.8 mm 5 mps 740 mmHg 92%
    04:00 +7°C° 0.8 mm 5 mps 740 mmHg 92%
    05:00 +7°C° 0.8 mm 5 mps 740 mmHg 92%
    06:00 +7°C° 0.6 mm 5 mps 740 mmHg 92%
    07:00 +7°C° 0.6 mm 5 mps 740 mmHg 92%
    08:00 +7°C° 0.6 mm 5 mps 740 mmHg 92%
    09:00 +7°C° 0.5 mm 6 mps 740 mmHg 91%
    10:00 +7°C° 0.5 mm 6 mps 740 mmHg 91%
    11:00 +7°C° 0.5 mm 6 mps 740 mmHg 90%
    12:00 +5°C° 0.6 mm 6 mps 740 mmHg 90%
    13:00 +5°C° 0.6 mm 6 mps 740 mmHg 91%
    14:00 +5°C° 0.6 mm 6 mps 740 mmHg 91%
    15:00 +6°C° 0.5 mm 5 mps 740 mmHg 91%
    16:00 +7°C° 0.5 mm 5 mps 740 mmHg 90%
    17:00 +7°C° 0.5 mm 5 mps 740 mmHg 90%
    18:00 +7°C° 0.6 mm 5 mps 740 mmHg 91%
    19:00 +7°C° 0.6 mm 4 mps 740 mmHg 92%
    20:00 +8°C° 0.6 mm 3 mps 740 mmHg 93%
    21:00 +7°C° 0.3 mm 3 mps 740 mmHg 94%
    22:00 +7°C° 0.3 mm 3 mps 740 mmHg 94%
    23:00 +7°C° 0.3 mm 3 mps 740 mmHg 94%

    1 May, Wednesday

    Time Temperature Precipitation Wind Pressure Humidity
    00:00 +5°C° 0 mm 3 mps 740 mmHg 94%
    01:00 +5°C° 0 mm 3 mps 740 mmHg 94%
    02:00 +4°C° 0 mm 3 mps 740 mmHg 95%
    03:00 +4°C° 0 mm 3 mps 740 mmHg 94%
    04:00 +4°C° 0 mm 3 mps 740 mmHg 94%
    05:00 +3°C° 0 mm 3 mps 740 mmHg 94%
    06:00 +4°C° 0 mm 3 mps 740 mmHg 89%
    07:00 +5°C° 0 mm 4 mps 740 mmHg 84%
    08:00 +7°C° 0 mm 4 mps 740 mmHg 79%
    09:00 +8°C° 0 mm 5 mps 740 mmHg 73%
    10:00 +9°C° 0 mm 5 mps 739 mmHg 67%
    11:00 +12°C° 0 mm 5 mps 739 mmHg 61%
    12:00 +12°C° 0 mm 5 mps 739 mmHg 58%
    13:00 +13°C° 0 mm 4 mps 739 mmHg 55%
    14:00 +14°C° 0 mm 4 mps 739 mmHg 51%
    15:00 +13°C° 0.1 mm 3 mps 739 mmHg 55%
    16:00 +13°C° 0.1 mm 3 mps 738 mmHg 58%
    17:00 +12°C° 0.1 mm 3 mps 738 mmHg 61%
    18:00 +11°C° 0 mm 3 mps 738 mmHg 66%
    19:00 +9°C° 0 mm 3 mps 738 mmHg 71%
    20:00 +8°C° 0 mm 3 mps 738 mmHg 75%
    21:00 +7°C° 0 mm 3 mps 738 mmHg 77%
    22:00 +7°C° 0 mm 2 mps 738 mmHg 79%
    23:00 +6°C° 0 mm 2 mps 738 mmHg 80%
    Show more